09-06-2022, 00:00:06,    279,    1.1,   10.3,   0.00,   0.00, 1008.6,   90.2, -999.0
09-06-2022, 00:00:16,    268,    1.7,   10.3,   0.00,   0.00, 1008.6,   90.1, -999.0
09-06-2022, 00:00:27,    253,    0.8,   10.2,   0.00,   0.00, 1008.6,   89.9, -999.0
09-06-2022, 00:00:36,    253,    0.0,   10.1,   0.00,   0.00, 1008.5,   89.8, -999.0
09-06-2022, 00:00:46,    252,    0.0,   10.1,   0.00,   0.00, 1008.4,   89.6, -999.0
09-06-2022, 00:00:56,    249,    0.8,   10.1,   0.00,   0.00, 1008.6,   90.1, -999.0
09-06-2022, 00:01:06,    251,    0.3,   10.1,   0.00,   0.00, 1008.5,   89.9, -999.0
09-06-2022, 00:01:16,    260,    1.1,   10.2,   0.00,   0.00, 1008.6,   90.2, -999.0
09-06-2022, 00:01:26,    259,    0.9,   10.2,   0.00,   0.00, 1008.6,   90.1, -999.0
09-06-2022, 00:01:36,    258,    0.4,   10.2,   0.00,   0.00, 1008.6,   89.9, -999.0
09-06-2022, 00:01:46,    259,    1.9,   10.2,   0.00,   0.00, 1008.6,   90.2, -999.0
09-06-2022, 00:01:56,    193,    0.8,   10.2,   0.00,   0.00, 1008.5,   90.1, -999.0
09-06-2022, 00:02:06,    224,    1.6,   10.2,   0.00,   0.00, 1008.6,   90.0, -999.0
09-06-2022, 00:02:16,    245,    2.7,   10.2,   0.00,   0.00, 1008.6,   90.2, -999.0
09-06-2022, 00:02:26,    245,    1.5,   10.3,   0.00,   0.00, 1008.6,   90.1, -999.0
09-06-2022, 00:02:36,    244,    0.0,   10.1,   0.00,   0.00, 1008.4,   89.9, -999.0
09-06-2022, 00:02:45,    245,    0.1,   10.1,   0.00,   0.00, 1008.5,   89.9, -999.0
09-06-2022, 00:02:56,    281,    1.1,   10.1,   0.00,   0.00, 1008.6,   90.3, -999.0
09-06-2022, 00:03:06,    262,    0.3,   10.1,   0.00,   0.00, 1008.5,   90.1, -999.0
09-06-2022, 00:03:15,    234,    0.3,   10.1,   0.00,   0.00, 1008.5,   90.1, -999.0
09-06-2022, 00:03:25,    229,    1.0,   10.2,   0.00,   0.00, 1008.6,   90.1, -999.0
09-06-2022, 00:03:35,    219,    0.7,   10.1,   0.00,   0.00, 1008.5,   90.1, -999.0
09-06-2022, 00:03:45,    220,    0.4,   10.1,   0.00,   0.00, 1008.5,   90.1, -999.0
09-06-2022, 00:03:55,    221,    0.0,   10.1,   0.00,   0.00, 1008.4,   89.8, -999.0
09-06-2022, 00:04:05,    221,    0.0,   10.0,   0.00,   0.00, 1008.4,   89.9, -999.0
09-06-2022, 00:04:15,    222,    0.0,   10.0,   0.00,   0.00, 1008.4,   90.0, -999.0
09-06-2022, 00:04:25,    222,    0.2,   10.1,   0.00,   0.00, 1008.5,   90.1, -999.0
09-06-2022, 00:04:35,    222,    0.1,   10.1,   0.00,   0.00, 1008.4,   90.1, -999.0
09-06-2022, 00:04:45,    250,    0.0,   10.1,   0.00,   0.00, 1008.4,   90.2, -999.0
09-06-2022, 00:04:55,    260,    0.7,   10.2,   0.00,   0.00, 1008.5,   90.2, -999.0
09-06-2022, 00:05:05,    257,    0.0,   10.1,   0.00,   0.00, 1008.4,   90.1, -999.0
09-06-2022, 00:05:15,    247,    0.0,   10.1,   0.00,   0.00, 1008.4,   90.1, -999.0
09-06-2022, 00:05:25,    248,    0.4,   10.1,   0.00,   0.00, 1008.5,   90.3, -999.0
09-06-2022, 00:05:35,    244,    0.3,   10.1,   0.00,   0.00, 1008.5,   90.3, -999.0
09-06-2022, 00:05:45,    245,    0.2,   10.1,   0.00,   0.00, 1008.5,   90.3, -999.0
09-06-2022, 00:05:54,    245,    0.0,   10.0,   0.00,   0.00, 1008.4,   90.1, -999.0
09-06-2022, 00:06:05,    245,    0.0,   10.0,   0.00,   0.00, 1008.4,   90.1, -999.0
09-06-2022, 00:06:14,    245,    0.0,   10.0,   0.00,   0.00, 1008.4,   89.9, -999.0
09-06-2022, 00:06:24,    245,    0.0,   10.0,   0.00,   0.00, 1008.4,   90.1, -999.0
09-06-2022, 00:06:34,    245,    0.0,   10.1,   0.00,   0.00, 1008.4,   90.1, -999.0
09-06-2022, 00:06:44,    246,    0.4,   10.1,   0.00,   0.00, 1008.5,   90.4, -999.0
09-06-2022, 00:06:54,    246,    0.0,   10.0,   0.00,   0.00, 1008.4,   90.2, -999.0
09-06-2022, 00:07:04,    245,    0.0,    9.9,   0.00,   0.00, 1008.4,   89.9, -999.0
09-06-2022, 00:07:14,    232,    0.5,   10.0,   0.00,   0.00, 1008.4,   90.2, -999.0
09-06-2022, 00:07:24,    233,    2.6,   10.1,   0.00,   0.00, 1008.5,   90.5, -999.0
09-06-2022, 00:07:34,    224,    2.4,   10.0,   0.00,   0.00, 1008.5,   90.5, -999.0
09-06-2022, 00:07:44,    221,    0.6,   10.1,   0.00,   0.00, 1008.4,   90.5, -999.0
09-06-2022, 00:07:54,    182,    0.7,   10.1,   0.00,   0.00, 1008.5,   90.6, -999.0
09-06-2022, 00:08:04,    203,    0.9,   10.1,   0.00,   0.00, 1008.5,   90.7, -999.0
09-06-2022, 00:08:14,    216,    0.0,   10.0,   0.00,   0.00, 1008.4,   90.4, -999.0
09-06-2022, 00:08:24,    225,    0.3,   10.1,   0.00,   0.00, 1008.5,   90.8, -999.0
09-06-2022, 00:08:34,    250,    2.2,   10.1,   0.00,   0.00, 1008.5,   90.7, -999.0
09-06-2022, 00:08:44,    225,    2.4,   10.1,   0.00,   0.00, 1008.6,   90.6, -999.0
09-06-2022, 00:08:54,    253,    1.5,   10.2,   0.00,   0.00, 1008.5,   90.8, -999.0
09-06-2022, 00:09:03,    222,    2.2,   10.3,   0.00,   0.00, 1008.5,   90.9, -999.0
09-06-2022, 00:09:14,    230,    1.6,   10.1,   0.00,   0.00, 1008.6,   90.7, -999.0
09-06-2022, 00:09:23,    269,    1.1,   10.1,   0.00,   0.00, 1008.6,   90.8, -999.0
09-06-2022, 00:09:33,    249,    0.6,   10.2,   0.00,   0.00, 1008.6,   90.9, -999.0
09-06-2022, 00:09:44,    245,    0.6,   10.2,   0.00,   0.00, 1008.6,   90.7, -999.0
09-06-2022, 00:09:53,    238,    1.1,   10.1,   0.00,   0.00, 1008.6,   90.8, -999.0
09-06-2022, 00:10:03,    253,    1.8,   10.2,   0.00,   0.00, 1008.5,   91.0, -999.0
09-06-2022, 00:10:13,    253,    0.1,   10.1,   0.00,   0.00, 1008.5,   90.8, -999.0
09-06-2022, 00:10:23,    270,    1.0,   10.2,   0.00,   0.00, 1008.6,   90.9, -999.0
09-06-2022, 00:10:33,    270,    0.2,   10.1,   0.00,   0.00, 1008.5,   90.8, -999.0
09-06-2022, 00:10:43,    256,    0.2,   10.2,   0.00,   0.00, 1008.5,   91.0, -999.0
09-06-2022, 00:10:53,    288,    0.9,   10.1,   0.00,   0.00, 1008.6,   91.0, -999.0
09-06-2022, 00:11:03,    245,    1.0,   10.1,   0.00,   0.00, 1008.5,   90.9, -999.0
09-06-2022, 00:11:13,    244,    0.8,   10.1,   0.00,   0.00, 1008.6,   90.9, -999.0
09-06-2022, 00:11:23,    244,    0.0,   10.1,   0.00,   0.00, 1008.5,   90.7, -999.0
09-06-2022, 00:11:33,    265,    1.2,   10.1,   0.00,   0.00, 1008.6,   90.9, -999.0
09-06-2022, 00:11:43,    263,    1.0,   10.2,   0.00,   0.00, 1008.6,   91.1, -999.0
09-06-2022, 00:11:53,    237,    0.9,   10.2,   0.00,   0.00, 1008.6,   90.8, -999.0
09-06-2022, 00:12:02,    264,    2.4,   10.1,   0.00,   0.00, 1008.6,   91.1, -999.0
09-06-2022, 00:12:13,    271,    1.9,   10.2,   0.00,   0.00, 1008.6,   91.1, -999.0
09-06-2022, 00:12:23,    271,    0.4,   10.1,   0.00,   0.00, 1008.6,   90.9, -999.0
09-06-2022, 00:12:32,    263,    1.0,   10.1,   0.00,   0.00, 1008.6,   90.9, -999.0
09-06-2022, 00:12:42,    240,    1.4,   10.1,   0.00,   0.00, 1008.6,   90.8, -999.0
09-06-2022, 00:12:53,    243,    0.3,   10.1,   0.00,   0.00, 1008.6,   90.7, -999.0
09-06-2022, 00:13:02,    259,    0.7,   10.1,   0.00,   0.00, 1008.6,   90.7, -999.0
09-06-2022, 00:13:12,    253,    1.3,   10.1,   0.00,   0.00, 1008.6,   90.7, -999.0
09-06-2022, 00:13:22,    186,    1.0,   10.1,   0.00,   0.00, 1008.6,   91.0, -999.0
09-06-2022, 00:13:32,    232,    0.4,   10.1,   0.00,   0.00, 1008.5,   90.7, -999.0
09-06-2022, 00:13:42,    236,    0.6,   10.1,   0.00,   0.00, 1008.6,   90.9, -999.0
09-06-2022, 00:13:52,    278,    0.2,   10.1,   0.00,   0.00, 1008.5,   90.7, -999.0
09-06-2022, 00:14:02,    270,    0.9,   10.1,   0.00,   0.00, 1008.6,   91.1, -999.0
09-06-2022, 00:14:12,    248,    0.9,   10.1,   0.00,   0.00, 1008.6,   91.0, -999.0
09-06-2022, 00:14:22,    237,    1.9,   10.1,   0.00,   0.00, 1008.6,   91.1, -999.0
09-06-2022, 00:14:32,    261,    1.0,   10.0,   0.00,   0.00, 1008.6,   91.0, -999.0
09-06-2022, 00:14:42,    261,    0.2,   10.0,   0.00,   0.00, 1008.6,   90.9, -999.0
09-06-2022, 00:14:52,    259,    0.2,   10.0,   0.00,   0.00, 1008.6,   90.9, -999.0
09-06-2022, 00:15:02,    260,    0.2,   10.0,   0.00,   0.00, 1008.6,   90.8, -999.0
09-06-2022, 00:15:11,    244,    1.2,   10.1,   0.00,   0.00, 1008.6,   90.9, -999.0
09-06-2022, 00:15:22,    259,    2.5,   10.0,   0.00,   0.00, 1008.6,   91.0, -999.0
09-06-2022, 00:15:32,    249,    2.1,   10.1,   0.00,   0.00, 1008.6,   91.1, -999.0
09-06-2022, 00:15:41,    251,    3.3,   10.1,   0.00,   0.00, 1008.6,   91.1, -999.0
09-06-2022, 00:15:51,    252,    1.1,   10.0,   0.00,   0.00, 1008.6,   91.1, -999.0
09-06-2022, 00:16:01,    251,    0.0,   10.0,   0.00,   0.00, 1008.5,   90.8, -999.0
09-06-2022, 00:16:11,    251,    0.0,    9.9,   0.00,   0.00, 1008.5,   90.8, -999.0
09-06-2022, 00:16:21,    256,    0.3,   10.0,   0.00,   0.00, 1008.5,   91.0, -999.0
09-06-2022, 00:16:31,    237,    1.6,   10.1,   0.00,   0.00, 1008.6,   91.1, -999.0
09-06-2022, 00:16:41,    256,    3.4,   10.1,   0.00,   0.00, 1008.6,   91.0, -999.0
09-06-2022, 00:16:51,    237,    2.7,   10.1,   0.00,   0.00, 1008.6,   91.1, -999.0
09-06-2022, 00:17:01,    248,    1.9,   10.1,   0.00,   0.00, 1008.7,   91.2, -999.0
09-06-2022, 00:17:11,    248,    0.8,   10.1,   0.00,   0.00, 1008.6,   91.1, -999.0
09-06-2022, 00:17:21,    248,    0.6,   10.0,   0.00,   0.00, 1008.6,   91.0, -999.0
09-06-2022, 00:17:31,    244,    1.1,   10.1,   0.00,   0.00, 1008.6,   91.3, -999.0
09-06-2022, 00:17:41,    248,    1.1,   10.0,   0.00,   0.00, 1008.6,   91.1, -999.0
09-06-2022, 00:17:51,    261,    1.8,   10.1,   0.00,   0.00, 1008.6,   91.1, -999.0
09-06-2022, 00:18:01,    280,    2.0,   10.1,   0.00,   0.00, 1008.6,   91.1, -999.0
09-06-2022, 00:18:11,    284,    0.6,   10.1,   0.00,   0.00, 1008.6,   91.3, -999.0
09-06-2022, 00:18:20,    284,    0.7,   10.0,   0.00,   0.00, 1008.6,   91.3, -999.0
09-06-2022, 00:18:31,    283,    0.1,   10.0,   0.00,   0.00, 1008.6,   91.2, -999.0
09-06-2022, 00:18:41,    283,    0.2,    9.9,   0.00,   0.00, 1008.6,   91.1, -999.0
09-06-2022, 00:18:50,    280,    0.1,   10.0,   0.00,   0.00, 1008.6,   91.1, -999.0
09-06-2022, 00:19:00,    248,    0.3,   10.0,   0.00,   0.00, 1008.6,   91.4, -999.0
09-06-2022, 00:19:10,    248,    0.0,   10.0,   0.00,   0.00, 1008.6,   91.1, -999.0
09-06-2022, 00:19:20,    247,    0.5,    9.9,   0.00,   0.00, 1008.6,   91.3, -999.0
09-06-2022, 00:19:30,    247,    0.7,   10.1,   0.00,   0.00, 1008.7,   91.4, -999.0
09-06-2022, 00:19:40,    248,    0.5,   10.0,   0.00,   0.00, 1008.6,   91.4, -999.0
09-06-2022, 00:19:50,    249,    0.1,   10.0,   0.00,   0.00, 1008.6,   91.2, -999.0
09-06-2022, 00:20:00,    248,    0.0,    9.9,   0.00,   0.00, 1008.5,   91.1, -999.0
09-06-2022, 00:20:10,    248,    0.0,    9.8,   0.00,   0.00, 1008.5,   91.1, -999.0
09-06-2022, 00:20:20,    247,    0.3,    9.9,   0.00,   0.00, 1008.6,   91.2, -999.0
09-06-2022, 00:20:30,    247,    0.1,    9.9,   0.00,   0.00, 1008.6,   91.2, -999.0
09-06-2022, 00:20:40,    258,    0.4,    9.9,   0.00,   0.00, 1008.6,   91.5, -999.0
09-06-2022, 00:20:50,    258,    0.3,   10.0,   0.00,   0.00, 1008.6,   91.5, -999.0
09-06-2022, 00:21:00,    254,    0.1,    9.9,   0.00,   0.00, 1008.6,   91.3, -999.0
09-06-2022, 00:21:10,    255,    0.1,    9.9,   0.00,   0.00, 1008.6,   91.3, -999.0
09-06-2022, 00:21:20,    261,    0.8,   10.0,   0.00,   0.00, 1008.7,   91.5, -999.0
09-06-2022, 00:21:29,    239,    0.3,    9.9,   0.00,   0.00, 1008.6,   91.4, -999.0
09-06-2022, 00:21:40,    217,    0.2,    9.9,   0.00,   0.00, 1008.6,   91.3, -999.0
09-06-2022, 00:21:49,    260,    0.7,   10.0,   0.00,   0.00, 1008.7,   91.5, -999.0
09-06-2022, 00:21:59,    240,    1.3,    9.9,   0.00,   0.00, 1008.7,   91.6, -999.0
09-06-2022, 00:22:10,    239,    0.4,    9.9,   0.00,   0.00, 1008.6,   91.7, -999.0
09-06-2022, 00:22:19,    239,    0.3,   10.0,   0.00,   0.00, 1008.6,   91.5, -999.0
09-06-2022, 00:22:29,    239,    1.0,   10.0,   0.00,   0.00, 1008.7,   91.6, -999.0
09-06-2022, 00:22:39,    267,    0.8,   10.0,   0.00,   0.00, 1008.7,   91.6, -999.0
09-06-2022, 00:22:49,    267,    0.6,    9.8,   0.00,   0.00, 1008.7,   91.6, -999.0
09-06-2022, 00:22:59,    302,    0.4,    9.9,   0.00,   0.00, 1008.6,   91.6, -999.0
09-06-2022, 00:23:09,    302,    0.1,    9.9,   0.00,   0.00, 1008.6,   91.5, -999.0
09-06-2022, 00:23:19,    263,    0.9,   10.0,   0.00,   0.00, 1008.6,   91.7, -999.0
09-06-2022, 00:23:29,    236,    1.0,   10.0,   0.00,   0.00, 1008.7,   91.8, -999.0
09-06-2022, 00:23:39,    229,    1.2,   10.0,   0.00,   0.00, 1008.7,   91.7, -999.0
09-06-2022, 00:23:49,    235,    0.7,   10.0,   0.00,   0.00, 1008.7,   91.9, -999.0
09-06-2022, 00:23:59,    235,    0.2,    9.9,   0.00,   0.00, 1008.7,   91.6, -999.0
09-06-2022, 00:24:09,    256,    0.7,    9.9,   0.00,   0.00, 1008.6,   91.7, -999.0
09-06-2022, 00:24:19,    253,    1.9,   10.0,   0.00,   0.00, 1008.7,   91.8, -999.0
09-06-2022, 00:24:28,    239,    2.3,   10.0,   0.00,   0.00, 1008.7,   92.0, -999.0
09-06-2022, 00:24:39,    292,    1.8,   10.0,   0.00,   0.00, 1008.7,   92.1, -999.0
09-06-2022, 00:24:49,    266,    1.0,    9.8,   0.00,   0.00, 1008.7,   91.9, -999.0
09-06-2022, 00:24:58,    254,    0.4,    9.9,   0.00,   0.00, 1008.7,   91.8, -999.0
09-06-2022, 00:25:08,    237,    0.9,    9.9,   0.00,   0.00, 1008.6,   91.8, -999.0
09-06-2022, 00:25:19,    268,    1.5,   10.0,   0.00,   0.00, 1008.7,   92.0, -999.0
09-06-2022, 00:25:28,    223,    0.7,    9.9,   0.00,   0.00, 1008.7,   92.0, -999.0
09-06-2022, 00:25:38,    245,    1.7,   10.0,   0.00,   0.00, 1008.7,   92.1, -999.0
09-06-2022, 00:25:48,    242,    2.0,    9.9,   0.00,   0.00, 1008.7,   92.0, -999.0
09-06-2022, 00:25:58,    254,    2.2,    9.9,   0.00,   0.00, 1008.7,   92.2, -999.0
09-06-2022, 00:26:08,    253,    1.5,   10.0,   0.00,   0.00, 1008.7,   92.0, -999.0
09-06-2022, 00:26:18,    222,    0.7,    9.9,   0.00,   0.00, 1008.6,   92.0, -999.0
09-06-2022, 00:26:28,    250,    0.2,    9.9,   0.00,   0.00, 1008.6,   92.0, -999.0
09-06-2022, 00:26:38,    251,    0.1,    9.9,   0.00,   0.00, 1008.6,   91.9, -999.0
09-06-2022, 00:26:48,    254,    0.1,    9.8,   0.00,   0.00, 1008.6,   91.8, -999.0
09-06-2022, 00:26:58,    235,    1.4,    9.9,   0.00,   0.00, 1008.7,   92.2, -999.0
09-06-2022, 00:27:08,    234,    1.6,    9.9,   0.00,   0.00, 1008.7,   92.1, -999.0
09-06-2022, 00:27:18,    257,    1.5,    9.9,   0.00,   0.00, 1008.7,   92.2, -999.0
09-06-2022, 00:27:28,    258,    1.3,    9.9,   0.00,   0.00, 1008.7,   92.1, -999.0
09-06-2022, 00:27:37,    260,    0.2,    9.8,   0.00,   0.00, 1008.7,   92.1, -999.0
09-06-2022, 00:27:48,    232,    1.1,    9.9,   0.00,   0.00, 1008.7,   92.0, -999.0
09-06-2022, 00:27:58,    235,    0.4,    9.9,   0.00,   0.00, 1008.7,   92.2, -999.0
09-06-2022, 00:28:07,    237,    1.3,    9.9,   0.00,   0.00, 1008.7,   92.0, -999.0
09-06-2022, 00:28:17,    238,    1.0,    9.9,   0.00,   0.00, 1008.7,   92.3, -999.0
09-06-2022, 00:28:27,    238,    0.4,    9.9,   0.00,   0.00, 1008.6,   92.0, -999.0
09-06-2022, 00:28:37,    238,    0.0,    9.8,   0.00,   0.00, 1008.6,   91.8, -999.0
09-06-2022, 00:28:47,    239,    0.0,    9.8,   0.00,   0.00, 1008.6,   91.8, -999.0
09-06-2022, 00:28:57,    259,    0.3,    9.8,   0.00,   0.00, 1008.7,   92.1, -999.0
09-06-2022, 00:29:07,    259,    0.3,    9.8,   0.00,   0.00, 1008.7,   92.1, -999.0
09-06-2022, 00:29:17,    256,    0.3,    9.8,   0.00,   0.00, 1008.7,   92.0, -999.0
09-06-2022, 00:29:27,    235,    1.7,    9.9,   0.00,   0.00, 1008.7,   92.4, -999.0
09-06-2022, 00:29:37,    275,    2.1,    9.9,   0.00,   0.00, 1008.7,   92.3, -999.0
09-06-2022, 00:29:47,    243,    1.3,    9.9,   0.00,   0.00, 1008.7,   92.8, -999.0
09-06-2022, 00:29:57,    243,    0.4,    9.9,   0.00,   0.00, 1008.7,   92.3, -999.0
09-06-2022, 00:30:07,    243,    0.5,    9.8,   0.00,   0.00, 1008.7,   92.4, -999.0
09-06-2022, 00:30:17,    243,    0.0,    9.8,   0.00,   0.00, 1008.6,   92.1, -999.0
09-06-2022, 00:30:27,    243,    0.0,    9.8,   0.00,   0.00, 1008.7,   92.1, -999.0
09-06-2022, 00:30:37,    243,    0.2,    9.9,   0.00,   0.00, 1008.7,   92.5, -999.0
09-06-2022, 00:30:46,    222,    0.0,    9.8,   0.00,   0.00, 1008.6,   92.2, -999.0
09-06-2022, 00:30:57,    235,    1.1,    9.9,   0.00,   0.00, 1008.7,   92.4, -999.0
09-06-2022, 00:31:07,    235,    1.2,    9.9,   0.00,   0.00, 1008.8,   92.5, -999.0
09-06-2022, 00:31:16,    253,    0.8,    9.9,   0.00,   0.00, 1008.8,   92.6, -999.0
09-06-2022, 00:31:27,    223,    1.0,    9.9,   0.00,   0.00, 1008.8,   92.6, -999.0
09-06-2022, 00:31:36,    243,    1.9,    9.8,   0.00,   0.00, 1008.8,   92.4, -999.0
09-06-2022, 00:31:46,    254,    1.2,    9.8,   0.00,   0.00, 1008.7,   92.4, -999.0
09-06-2022, 00:31:56,    253,    0.1,    9.8,   0.00,   0.00, 1008.7,   92.4, -999.0
09-06-2022, 00:32:06,    253,    0.1,    9.7,   0.00,   0.00, 1008.7,   92.2, -999.0
09-06-2022, 00:32:16,    249,    0.6,    9.8,   0.00,   0.00, 1008.8,   92.7, -999.0
09-06-2022, 00:32:26,    254,    0.8,    9.9,   0.00,   0.00, 1008.8,   92.6, -999.0
09-06-2022, 00:32:36,    249,    0.9,    9.9,   0.00,   0.00, 1008.8,   92.5, -999.0
09-06-2022, 00:32:46,    249,    0.2,    9.9,   0.00,   0.00, 1008.8,   92.8, -999.0
09-06-2022, 00:32:56,    249,    0.0,    9.8,   0.00,   0.00, 1008.7,   92.4, -999.0
09-06-2022, 00:33:06,    262,    1.5,    9.8,   0.00,   0.00, 1008.8,   92.6, -999.0
09-06-2022, 00:33:16,    226,    1.0,    9.8,   0.00,   0.00, 1008.8,   92.8, -999.0
09-06-2022, 00:33:26,    232,    1.0,    9.9,   0.00,   0.00, 1008.8,   92.7, -999.0
09-06-2022, 00:33:36,    232,    1.5,    9.9,   0.00,   0.00, 1008.8,   92.9, -999.0
09-06-2022, 00:33:45,    239,    1.1,    9.9,   0.00,   0.00, 1008.8,   92.9, -999.0
09-06-2022, 00:33:56,    252,    1.5,    9.8,   0.00,   0.00, 1008.8,   92.7, -999.0
09-06-2022, 00:34:06,    259,    1.2,    9.8,   0.00,   0.00, 1008.8,   92.7, -999.0
09-06-2022, 00:34:15,    255,    1.4,    9.8,   0.00,   0.00, 1008.8,   92.7, -999.0
09-06-2022, 00:34:25,    254,    1.3,    9.8,   0.00,   0.00, 1008.8,   93.0, -999.0
09-06-2022, 00:34:36,    253,    0.4,    9.8,   0.00,   0.00, 1008.8,   92.8, -999.0
09-06-2022, 00:34:45,    253,    0.1,    9.7,   0.00,   0.00, 1008.7,   92.6, -999.0
09-06-2022, 00:34:55,    253,    0.1,    9.7,   0.00,   0.00, 1008.7,   92.6, -999.0
09-06-2022, 00:35:05,    254,    1.5,    9.8,   0.00,   0.00, 1008.8,   92.9, -999.0
09-06-2022, 00:35:15,    253,    1.3,    9.8,   0.00,   0.00, 1008.8,   92.8, -999.0
09-06-2022, 00:35:25,    270,    0.3,    9.8,   0.00,   0.00, 1008.8,   92.9, -999.0
09-06-2022, 00:35:35,    241,    0.8,    9.8,   0.00,   0.00, 1008.8,   93.0, -999.0
09-06-2022, 00:35:45,    243,    0.0,    9.7,   0.00,   0.00, 1008.7,   92.7, -999.0
09-06-2022, 00:35:55,    228,    0.9,    9.8,   0.00,   0.00, 1008.8,   93.0, -999.0
09-06-2022, 00:36:05,    244,    2.7,    9.8,   0.00,   0.00, 1008.8,   93.0, -999.0
09-06-2022, 00:36:15,    242,    2.0,    9.8,   0.00,   0.00, 1008.8,   93.1, -999.0
09-06-2022, 00:36:25,    240,    0.4,    9.8,   0.00,   0.00, 1008.7,   92.9, -999.0
09-06-2022, 00:36:35,    241,    0.0,    9.7,   0.00,   0.00, 1008.7,   92.7, -999.0
09-06-2022, 00:36:45,    241,    0.0,    9.7,   0.00,   0.00, 1008.7,   92.8, -999.0
09-06-2022, 00:36:54,    263,    0.4,    9.8,   0.00,   0.00, 1008.8,   93.1, -999.0
09-06-2022, 00:37:05,    243,    0.1,    9.7,   0.00,   0.00, 1008.7,   92.9, -999.0
09-06-2022, 00:37:15,    244,    0.8,    9.8,   0.00,   0.00, 1008.8,   93.1, -999.0
09-06-2022, 00:37:24,    235,    1.3,    9.7,   0.00,   0.00, 1008.8,   93.0, -999.0
09-06-2022, 00:37:34,    283,    0.7,    9.8,   0.00,   0.00, 1008.8,   93.1, -999.0
09-06-2022, 00:37:45,    248,    1.6,    9.8,   0.00,   0.00, 1008.8,   93.4, -999.0
09-06-2022, 00:37:54,    253,    1.4,    9.8,   0.00,   0.00, 1008.8,   93.2, -999.0
09-06-2022, 00:38:04,    246,    1.2,    9.9,   0.00,   0.00, 1008.8,   93.2, -999.0
09-06-2022, 00:38:14,    259,    0.6,    9.8,   0.00,   0.00, 1008.8,   93.2, -999.0
09-06-2022, 00:38:24,    259,    0.5,    9.8,   0.00,   0.00, 1008.8,   93.3, -999.0
09-06-2022, 00:38:34,    257,    0.2,    9.8,   0.00,   0.00, 1008.8,   93.0, -999.0
09-06-2022, 00:38:44,    248,    0.8,    9.8,   0.00,   0.00, 1008.8,   93.3, -999.0
09-06-2022, 00:38:54,    256,    1.5,    9.7,   0.00,   0.00, 1008.8,   93.2, -999.0
09-06-2022, 00:39:04,    243,    1.8,    9.8,   0.00,   0.00, 1008.8,   93.1, -999.0
09-06-2022, 00:39:14,    247,    1.3,    9.8,   0.00,   0.00, 1008.8,   93.3, -999.0
09-06-2022, 00:39:24,    250,    1.1,    9.7,   0.00,   0.00, 1008.8,   93.2, -999.0
09-06-2022, 00:39:34,    251,    1.1,    9.8,   0.00,   0.00, 1008.9,   93.3, -999.0
09-06-2022, 00:39:44,    238,    1.8,    9.7,   0.00,   0.00, 1008.8,   93.2, -999.0
09-06-2022, 00:39:54,    234,    1.6,    9.8,   0.00,   0.00, 1008.8,   93.4, -999.0
09-06-2022, 00:40:03,    288,    0.9,    9.7,   0.00,   0.00, 1008.8,   93.4, -999.0
09-06-2022, 00:40:14,    285,    0.6,    9.7,   0.00,   0.00, 1008.8,   93.3, -999.0
09-06-2022, 00:40:24,    250,    1.2,    9.7,   0.00,   0.00, 1008.9,   93.4, -999.0
09-06-2022, 00:40:33,    250,    1.8,    9.8,   0.00,   0.00, 1008.9,   93.5, -999.0
09-06-2022, 00:40:43,    250,    0.8,    9.8,   0.00,   0.00, 1008.9,   93.4, -999.0
09-06-2022, 00:40:53,    249,    0.2,    9.7,   0.00,   0.00, 1008.8,   93.5, -999.0
09-06-2022, 00:41:03,    249,    0.0,    9.6,   0.00,   0.00, 1008.7,   93.0, -999.0
09-06-2022, 00:41:13,    249,    0.0,    9.7,   0.00,   0.00, 1008.7,   93.1, -999.0
09-06-2022, 00:41:23,    279,    0.0,    9.6,   0.00,   0.00, 1008.7,   93.2, -999.0
09-06-2022, 00:41:33,    264,    1.1,    9.7,   0.00,   0.00, 1008.9,   93.5, -999.0
09-06-2022, 00:41:43,    266,    0.9,    9.7,   0.00,   0.00, 1008.9,   93.5, -999.0
09-06-2022, 00:41:53,    262,    0.2,    9.7,   0.00,   0.00, 1008.8,   93.4, -999.0
09-06-2022, 00:42:03,    245,    2.8,    9.7,   0.00,   0.00, 1008.9,   93.5, -999.0
09-06-2022, 00:42:13,    268,    2.1,    9.7,   0.00,   0.00, 1008.9,   93.5, -999.0
09-06-2022, 00:42:23,    279,    1.1,    9.7,   0.00,   0.00, 1008.8,   93.3, -999.0
09-06-2022, 00:42:33,    265,    0.8,    9.7,   0.00,   0.00, 1008.9,   93.5, -999.0
09-06-2022, 00:42:43,    265,    0.3,    9.7,   0.00,   0.00, 1008.9,   93.7, -999.0
09-06-2022, 00:42:53,    246,    0.4,    9.7,   0.00,   0.00, 1008.9,   93.5, -999.0
09-06-2022, 00:43:03,    264,    2.7,    9.7,   0.00,   0.00, 1008.9,   93.5, -999.0
09-06-2022, 00:43:13,    247,    1.9,    9.6,   0.00,   0.00, 1008.9,   93.6, -999.0
09-06-2022, 00:43:23,    251,    1.6,    9.7,   0.00,   0.00, 1008.9,   93.5, -999.0
09-06-2022, 00:43:32,    251,    0.5,    9.7,   0.00,   0.00, 1008.9,   93.5, -999.0
09-06-2022, 00:43:42,    250,    0.3,    9.7,   0.00,   0.00, 1008.8,   93.4, -999.0
09-06-2022, 00:43:53,    250,    0.0,    9.6,   0.00,   0.00, 1008.7,   93.3, -999.0
09-06-2022, 00:44:02,    250,    0.0,    9.6,   0.00,   0.00, 1008.7,   93.3, -999.0
09-06-2022, 00:44:12,    250,    0.0,    9.6,   0.00,   0.00, 1008.7,   93.3, -999.0
09-06-2022, 00:44:22,    250,    0.0,    9.6,   0.00,   0.00, 1008.8,   93.3, -999.0
09-06-2022, 00:44:32,    250,    0.6,    9.7,   0.00,   0.00, 1008.9,   93.7, -999.0
09-06-2022, 00:44:42,    254,    1.1,    9.7,   0.00,   0.00, 1008.9,   93.9, -999.0
09-06-2022, 00:44:52,    247,    0.5,    9.7,   0.00,   0.00, 1008.8,   93.7, -999.0
09-06-2022, 00:45:02,    249,    0.0,    9.6,   0.00,   0.00, 1008.8,   93.5, -999.0
09-06-2022, 00:45:12,    248,    0.0,    9.6,   0.00,   0.00, 1008.8,   93.5, -999.0
09-06-2022, 00:45:22,    248,    0.0,    9.6,   0.00,   0.00, 1008.7,   93.4, -999.0
09-06-2022, 00:45:32,    242,    0.4,    9.6,   0.00,   0.00, 1008.8,   93.5, -999.0
09-06-2022, 00:45:42,    249,    2.2,    9.6,   0.00,   0.00, 1008.9,   93.8, -999.0
09-06-2022, 00:45:52,    243,    3.2,    9.7,   0.00,   0.00, 1008.9,   93.8, -999.0
09-06-2022, 00:46:02,    248,    1.8,    9.7,   0.00,   0.00, 1008.9,   93.9, -999.0
09-06-2022, 00:46:11,    234,    1.8,    9.7,   0.00,   0.00, 1008.9,   94.2, -999.0
09-06-2022, 00:46:22,    234,    0.6,    9.7,   0.00,   0.00, 1008.9,   94.0, -999.0
09-06-2022, 00:46:32,    233,    0.1,    9.7,   0.00,   0.00, 1008.8,   93.7, -999.0
09-06-2022, 00:46:41,    233,    0.0,    9.7,   0.00,   0.00, 1008.8,   93.7, -999.0